Regional Weather Roundup
Issued by NWS

Home | Current Version | Previous Version | Text Only | Print | Product List | Glossary On
Versions: 1 2 3 4 5 6 7 8 9 10 11 12 13 14 15 16 17 18 19 20 21 22 23 24 25 26 27
000
ASPQ40 PGUM 211012
RWRPQ
WEATHER ROUNDUP FOR THE MARIANAS AND MICRONESIA
NATIONAL WEATHER SERVICE TIYAN GU
800 PM CHST MON AUG 21 2017

GUZ001>004-211100-
MARIANA ISLANDS-

CITY           SKY/WX    TMP DP  RH WIND       PRES   REMARKS
GUAM AIRPORT   CLEAR     79  77  94 S3        29.86R
ANDERSEN AFB   MOCLDY    79  73  83 SW3       29.91R
ROTA AIRPORT   MOCLDY    77  73  88 S7        29.85R
TINIAN AP      PTCLDY    81  77  89 CALM      29.83R
SAIPAN AP      CLOUDY    86  75  70 CALM      29.84R HX  95

$$

PMZ161-211100-
REPUBLIC OF PALAU-

CITY           SKY/WX    TMP DP  RH WIND       PRES   REMARKS
KOROR AP       LGT RAIN  75  73  94 NE3       29.81R
KOROR WSO      LGT RAIN  77  75  94 N5        29.81R

$$

PMZ171>174-211100-
FEDERATED STATES OF MICRONESIA-

CITY           SKY/WX    TMP DP  RH WIND       PRES   REMARKS
YAP AIRPORT    CLOUDY    79  77  94 VRB5      29.79R
CHUUK AP       CLOUDY    84  79  84 VRB5      29.80R HX  96
POHNPEI AP     NOT AVBL
POHNPEI WSO    CLOUDY    79  77  94 SE5       29.86R
KOSRAE AP      NOT AVBL

$$

PMZ181-211100-
REPUBLIC OF THE MARSHALL ISLANDS-

CITY           SKY/WX    TMP DP  RH WIND       PRES   REMARKS
KWAJALEIN AP   CLEAR     84  75  74 E13       29.86S HX  92
MAJURO AP      MOCLDY    82  79  89 SE12      29.89R HX  93
MAJURO WSO     MOCLDY    82  77  83 SE9       29.88R HX  91

$$





USA.gov is the U.S. government's official web portal to all federal, state and local government web resources and services.